Probability
0 0 0 0 0 0 0 0 0 0 0 3 3 3 3 3 6 10 16 19 19 19 16 13 13 10 10 6 6 6 6 6 6 6 10 10 6 6 6 6 3 10 3 3
0 0 0 0 0 0 0 0 0 0 0 3 3 3 0 0 3 10 16 19 19 19 19 13 10 10 16 10 10 6 6 3 3 6 6 3 3 3 6 6 6 3 6 6
0 0 0 0 0 0 0 0 0 0 0 0 0 3 3 0 3 3 13 23 23 19 19 19 13 10 10 10 6 6 6 6 3 6 3 3 3 3 3 3 6 6 6 3
0 0 0 0 0 0 0 0 0 0 0 0 0 3 3 6 10 10 16 19 16 23 19 19 16 10 13 6 6 3 3 3 6 6 3 3 3 3 3 16 13 13 6 0
0 0 0 0 0 0 0 0 0 0 0 0 0 0 0 6 13 16 19 23 16 19 19 16 16 13 10 6 0 0 3 6 6 3 3 3 3 6 19 19 16 13 3 6
0 0 0 0 0 0 0 0 0 0 0 0 0 3 6 10 16 16 19 29 23 16 16 16 16 19 16 10 3 3 6 6 6 6 10 6 10 16 23 26 16 10 6 3
0 0 0 0 0 0 0 3 3 3 3 6 10 13 13 10 13 16 19 23 23 19 23 26 26 26 23 16 6 0 0 3 6 10 13 13 19 23 26 23 13 13 10 6
3 0 0 0 0 6 13 10 6 0 0 3 3 6 10 10 19 16 19 23 19 23 26 29 23 26 26 26 23 6 3 0 6 13 10 3 16 19 26 29 16 16 16 16
6 0 13 3 3 10 6 6 3 3 3 3 3 3 13 10 13 19 19 16 16 19 23 23 19 29 26 35 23 10 10 19 13 10 16 16 19 19 23 19 10 0 3 3
3 0 0 0 0 3 0 0 0 0 3 3 3 3 10 6 13 13 13 16 16 16 13 19 19 19 29 32 26 6 10 16 13 13 13 16 19 6 3 3 10 10 3 0
6 0 0 0 0 0 0 0 0 0 0 3 3 3 6 6 13 13 13 16 16 16 19 13 26 26 16 23 26 13 16 10 13 0 0 16 10 13 6 6 10 3 0 0
0 6 3 3 0 0 0 0 0 0 0 3 3 6 6 6 10 13 13 13 13 16 10 13 16 16 19 26 19 23 19 16 10 0 0 0 3 3 3 0 0 0 0 0
3 0 0 0 0 0 0 0 0 0 0 3 3 6 6 10 10 6 10 6 13 13 13 13 13 16 16 16 23 16 19 19 6 0 0 0 0 0 6 0 0 0 0 0
3 3 0 0 0 0 0 0 0 0 3 3 3 10 6 6 10 10 10 6 6 6 6 6 10 13 13 13 16 13 13 3 3 3 0 0 0 0 0 0 0 0 0 0
0 0 0 0 0 0 0 0 0 0 0 0 6 10 10 10 10 6 6 3 3 3 3 3 3 10 10 13 16 13 10 6 10 0 0 0 0 0 0 0 0 0 0 0
0 0 0 0 0 0 0 0 0 0 0 0 3 6 6 6 3 6 6 6 6 6 3 3 10 6 6 10 16 10 6 3 0 0 0 0 0 0 0 0 0 0 0 0
0 0 0 0 0 0 0 0 0 0 0 0 0 0 3 3 3 3 3 3 6 6 6 10 6 3 3 10 6 0 0 0 0 0 0 0 0 0 0 0 0 0 0 0
0 0 0 0 0 0 0 0 0 0 0 0 0 0 0 0 3 6 3 3 6 10 10 10 6 6 3 6 16 0 0 0 0 0 0 0 0 0 0 0 0 0 0 0
0 0 0 0 0 0 0 0 0 0 0 0 0 0 0 0 3 3 3 6 10 13 10 10 3 6 10 10 3 6 0 0 0 0 0 0 0 0 0 0 0 0 0 0
0 0 0 0 0 0 0 0 0 0 0 0 0 0 0 0 0 0 6 6 6 6 6 6 10 10 6 6 0 0 0 0 0 0 0 0 0 0 0 0 0 0 0 0
0 0 0 0 0 0 0 0 0 0 0 0 0 0 0 3 0 0 6 3 10 10 10 3 6 3 3 3 0 0 0 0 0 0 0 0 0 0 0 0 0 0 0 0
0 0 0 0 0 0 0 0 0 0 0 0 0 0 0 0 0 3 3 6 6 6 6 3 3 3 3 0 0 0 0 0 0 0 0 0 0 0 0 0 0 0 0 0
3 0 3 3 3 3 0 0 0 0 0 0 3 0 0 3 0 0 0 3 3 0 0 0 3 0 0 0 0 0 0 0 0 0 0 0 0 0 0 0 0 0 0 0
0 0 3 3 3 3 3 0 3 6 6 3 3 6 3 3 3 0 0 0 0 0 0 0 0 0 0 0 0 0 0 0 0 0 0 0 0 0 0 0 0 0 0 0
6 6 3 6 3 3 3 6 3 6 6 3 3 6 3 3 3 0 0 0 0 0 0 0 0 0 0 0 0 0 0 0 0 0 0 0 0 0 0 0 0 0 0 0
6 6 10 13 13 13 3 0 0 0 0 0 3 3 3 3 3 0 0 0 0 0 0 0 0 0 0 0 0 0 0 0 0 0 0 0 0 0 0 0 0 0 0 0
6 10 13 3 3 3 0 0 0 0 0 0 0 3 3 3 0 0 0 0 0 0 0 0 0 0 0 0 0 0 0 0 0 0 0 0 0 0 0 0 0 0 0 0
Height
5821 5822 5822 5821 5821 5821 5821 5821 5821 5820 5818 5816 5815 5813 5811 5809 5808 5806 5803 5801 5799 5797 5794 5792 5789 5786 5783 5780 5777 5774 5771 5767 5764 5761 5758 5755 5753 5750 5747 5745 5742 5740 5737 5735
5817 5818 5817 5817 5817 5817 5817 5817 5816 5815 5814 5811 5810 5809 5807 5805 5804 5802 5800 5798 5796 5793 5791 5788 5786 5783 5780 5777 5774 5771 5768 5764 5761 5758 5755 5752 5749 5747 5744 5741 5739 5736 5733 5730
5813 5813 5813 5813 5814 5813 5812 5811 5811 5810 5810 5807 5806 5805 5803 5801 5800 5798 5796 5794 5792 5790 5787 5785 5783 5780 5777 5774 5771 5768 5764 5761 5758 5755 5751 5749 5746 5743 5740 5738 5735 5732 5729 5726
5808 5809 5808 5811 5809 5809 5808 5807 5805 5804 5803 5802 5801 5800 5799 5797 5796 5794 5792 5790 5787 5785 5784 5781 5779 5776 5773 5770 5767 5764 5760 5757 5753 5750 5747 5744 5742 5739 5737 5734 5731 5728 5725 5722
5803 5803 5803 5805 5803 5803 5803 5801 5800 5799 5798 5797 5797 5796 5794 5793 5791 5789 5788 5786 5784 5782 5780 5778 5775 5773 5770 5766 5763 5759 5756 5753 5749 5746 5743 5741 5738 5735 5733 5731 5728 5725 5722 5719
5797 5798 5798 5799 5797 5797 5798 5796 5795 5794 5793 5792 5792 5791 5790 5788 5786 5785 5783 5782 5780 5778 5776 5774 5771 5769 5766 5763 5759 5756 5752 5749 5746 5743 5740 5738 5735 5733 5730 5727 5724 5721 5718 5715
5792 5792 5792 5792 5792 5793 5793 5791 5789 5788 5788 5787 5787 5786 5785 5784 5782 5780 5779 5777 5776 5774 5772 5770 5767 5765 5762 5759 5756 5753 5749 5746 5743 5741 5738 5735 5733 5730 5727 5724 5721 5718 5715 5712
5786 5786 5788 5786 5786 5787 5786 5784 5784 5783 5782 5782 5781 5780 5779 5778 5777 5775 5774 5773 5771 5769 5767 5765 5763 5760 5758 5755 5752 5749 5746 5744 5741 5738 5735 5732 5730 5727 5724 5721 5718 5715 5711 5708
5781 5782 5780 5780 5780 5779 5779 5779 5778 5777 5777 5776 5775 5775 5774 5773 5771 5770 5769 5767 5766 5764 5763 5761 5759 5756 5754 5751 5749 5746 5743 5741 5738 5735 5732 5729 5727 5724 5721 5718 5715 5711 5708 5705
5774 5774 5773 5772 5773 5773 5773 5772 5772 5771 5771 5770 5769 5769 5768 5767 5766 5764 5763 5762 5761 5759 5757 5756 5754 5752 5749 5747 5745 5743 5740 5738 5735 5732 5729 5726 5724 5720 5717 5715 5711 5708 5705 5702
5768 5768 5767 5766 5766 5766 5766 5766 5765 5765 5764 5764 5763 5763 5762 5761 5760 5758 5757 5756 5755 5754 5752 5751 5749 5747 5745 5743 5741 5739 5736 5734 5732 5729 5726 5723 5720 5717 5714 5711 5708 5705 5702 5699
5761 5760 5761 5760 5759 5759 5759 5759 5758 5758 5758 5757 5756 5756 5755 5754 5753 5752 5751 5750 5749 5748 5746 5745 5744 5742 5740 5738 5736 5734 5732 5730 5728 5725 5723 5720 5717 5714 5711 5708 5705 5702 5699 5695
5753 5753 5753 5753 5752 5752 5752 5752 5751 5751 5751 5750 5750 5749 5748 5747 5746 5745 5744 5743 5743 5742 5741 5739 5738 5736 5735 5733 5732 5729 5727 5725 5723 5721 5719 5716 5713 5710 5707 5705 5702 5699 5695 5692
5745 5745 5746 5746 5746 5745 5745 5744 5744 5744 5744 5743 5742 5742 5741 5740 5739 5739 5738 5737 5736 5736 5735 5734 5732 5731 5729 5728 5726 5724 5722 5720 5718 5716 5714 5711 5709 5706 5703 5701 5698 5695 5692 5689
5736 5737 5738 5738 5738 5738 5738 5737 5737 5737 5737 5736 5735 5735 5734 5733 5733 5732 5732 5731 5730 5729 5728 5727 5726 5724 5723 5722 5720 5719 5717 5715 5713 5711 5709 5707 5704 5702 5699 5697 5694 5691 5689 5686
5727 5728 5729 5730 5730 5730 5730 5730 5730 5730 5729 5729 5728 5728 5727 5727 5726 5726 5725 5724 5724 5723 5722 5720 5719 5718 5716 5716 5714 5713 5711 5710 5708 5706 5704 5702 5699 5697 5695 5692 5690 5687 5685 5682
5718 5719 5721 5722 5722 5722 5723 5722 5722 5722 5722 5722 5721 5721 5721 5720 5720 5719 5718 5717 5717 5716 5715 5714 5712 5711 5710 5709 5708 5707 5706 5704 5702 5700 5698 5696 5694 5692 5690 5688 5685 5683 5680 5678
5710 5711 5712 5713 5714 5714 5715 5715 5715 5715 5715 5715 5715 5714 5714 5714 5713 5712 5711 5710 5710 5709 5708 5707 5706 5705 5704 5703 5702 5701 5699 5698 5696 5695 5693 5691 5689 5687 5685 5683 5681 5679 5676 5674
5702 5703 5704 5705 5706 5706 5707 5708 5708 5708 5708 5707 5707 5707 5707 5707 5706 5705 5704 5703 5703 5702 5701 5700 5699 5699 5698 5697 5696 5695 5694 5692 5691 5689 5687 5685 5683 5682 5680 5678 5676 5674 5672 5669
5693 5695 5696 5697 5698 5699 5699 5700 5700 5700 5700 5700 5700 5700 5700 5700 5699 5698 5697 5696 5695 5695 5694 5694 5693 5693 5692 5692 5691 5690 5688 5687 5685 5684 5681 5680 5678 5677 5675 5673 5671 5670 5668 5665
5685 5686 5687 5689 5690 5690 5691 5692 5692 5693 5693 5693 5693 5693 5692 5692 5692 5691 5690 5689 5689 5688 5688 5687 5687 5687 5686 5686 5685 5684 5683 5682 5680 5679 5677 5675 5674 5672 5671 5669 5667 5666 5664 5661
5677 5678 5679 5680 5682 5682 5683 5684 5684 5685 5685 5685 5685 5685 5685 5685 5684 5683 5683 5682 5682 5682 5681 5681 5681 5681 5681 5680 5679 5679 5678 5677 5675 5673 5672 5670 5669 5668 5666 5664 5663 5661 5659 5657
5669 5670 5671 5672 5673 5674 5675 5676 5676 5677 5677 5678 5678 5678 5678 5677 5677 5676 5676 5676 5675 5675 5675 5675 5675 5675 5674 5674 5674 5673 5672 5671 5670 5668 5667 5666 5664 5663 5661 5660 5658 5657 5655 5653
5661 5662 5663 5664 5665 5666 5667 5668 5669 5669 5670 5670 5670 5670 5670 5670 5670 5669 5669 5669 5669 5669 5669 5669 5669 5669 5669 5668 5668 5667 5667 5666 5665 5664 5662 5661 5660 5658 5657 5655 5654 5652 5650 5648
5653 5654 5655 5656 5657 5658 5659 5660 5661 5661 5662 5662 5663 5663 5663 5663 5663 5663 5662 5663 5663 5662 5662 5662 5663 5663 5662 5662 5662 5661 5661 5660 5659 5658 5657 5656 5655 5653 5652 5651 5649 5647 5645 5643
5646 5646 5647 5648 5649 5650 5651 5652 5653 5653 5654 5655 5656 5656 5656 5656 5656 5656 5656 5656 5656 5656 5656 5656 5656 5656 5656 5656 5656 5655 5655 5654 5653 5652 5652 5650 5649 5648 5647 5645 5644 5642 5640 5638
5639 5639 5640 5641 5642 5642 5643 5644 5645 5646 5646 5647 5648 5648 5648 5649 5649 5649 5649 5650 5650 5649 5650 5650 5650 5650 5650 5649 5649 5649 5649 5648 5647 5646 5645 5644 5643 5642 5640 5639 5638 5636 5634 5632
Wind_Speed
15 15 16 16 16 16 16 17 17 16 18 19 19 19 19 18 18 19 18 18 18 18 18 18 19 19 19 19 20 20 21 20 20 20 20 20 20 19 19 20 20 20 19 19
16 16 17 17 17 18 17 17 17 17 19 19 20 19 18 18 18 18 19 19 19 19 18 18 19 19 18 19 20 20 20 20 20 20 20 20 19 19 19 19 19 19 19 19
18 17 18 18 17 17 17 17 18 19 20 20 21 20 19 19 18 19 19 19 20 19 19 19 19 19 19 20 20 20 21 20 20 20 19 19 19 18 18 19 19 19 20 20
20 19 19 18 18 18 18 18 18 20 20 21 21 20 20 20 20 20 20 19 19 20 19 19 20 20 20 21 20 21 21 20 20 19 19 19 19 18 18 18 19 20 20 20
20 20 20 19 19 19 19 19 20 20 21 21 21 20 20 20 20 20 20 19 20 20 20 20 20 21 21 21 21 21 20 20 20 20 19 18 18 18 18 19 20 20 20 20
20 20 20 20 20 20 20 21 21 21 22 21 21 21 21 20 20 20 20 20 20 21 21 21 21 21 21 20 20 20 20 19 19 19 18 18 18 18 19 19 20 20 20 20
21 20 20 22 21 21 21 22 22 23 22 22 23 22 21 22 22 21 21 21 20 20 21 21 21 21 20 20 20 20 20 19 19 19 18 18 18 19 19 19 20 20 19 18
21 21 22 23 22 22 22 22 22 23 22 23 24 23 22 21 22 23 23 22 21 21 20 21 21 21 20 20 20 20 20 19 19 18 18 18 19 19 20 20 20 20 19 19
23 23 24 24 23 23 22 22 22 23 23 23 23 23 22 22 22 23 22 21 21 21 21 20 21 21 21 21 20 20 20 19 19 19 19 19 19 20 20 20 19 20 20 19
24 24 24 25 25 25 24 24 23 23 23 23 23 23 23 23 23 23 23 22 22 22 21 21 21 21 21 21 21 20 19 19 19 18 19 19 19 20 19 19 19 19 19 19
25 25 25 26 26 27 26 26 25 25 24 24 23 24 24 24 23 23 23 23 22 22 22 22 21 21 21 20 20 20 19 19 18 19 19 20 20 20 19 19 19 19 20 20
27 26 26 26 26 26 25 26 26 26 25 25 25 25 25 24 24 24 24 23 23 23 23 22 22 22 21 21 20 20 20 20 20 20 20 20 20 20 19 18 18 18 19 20
28 27 27 26 26 25 25 26 26 26 26 26 25 25 25 24 24 24 23 24 24 24 23 23 22 22 22 22 22 22 21 21 21 21 20 20 20 19 18 17 17 18 18 19
29 29 28 28 27 27 26 26 26 26 26 26 26 25 25 24 24 24 24 23 23 24 23 23 23 23 22 22 22 22 21 21 21 21 21 20 20 19 18 17 17 18 18 19
29 29 29 28 28 27 26 26 27 26 26 26 25 25 25 24 24 24 23 23 24 24 24 23 23 23 22 22 22 22 21 21 21 21 21 21 20 19 17 17 18 18 18 19
31 30 29 28 27 27 26 26 26 26 26 25 25 24 24 24 24 24 23 23 24 24 23 24 23 23 23 22 22 22 21 21 22 21 21 20 20 19 18 17 17 18 19 18
30 30 29 28 27 27 26 26 25 25 25 25 24 24 24 24 24 24 24 24 24 23 23 23 23 23 23 22 22 21 21 21 21 21 21 20 20 19 18 17 17 18 18 18
30 29 28 28 27 27 27 26 26 26 25 25 25 25 25 25 25 25 24 24 24 23 23 22 22 22 21 21 20 21 21 20 20 20 20 20 20 19 18 18 18 18 18 18
28 29 29 28 27 27 27 27 26 26 26 26 25 25 24 24 24 24 24 24 24 23 23 23 22 21 21 20 20 20 20 20 20 20 20 19 19 18 18 18 18 17 18 18
28 29 28 28 28 27 27 27 27 27 26 26 25 24 24 24 24 24 24 23 22 22 22 22 21 20 19 19 19 19 19 19 19 19 19 19 18 18 18 18 17 17 17 17
27 28 28 27 27 27 27 27 27 26 26 25 25 24 24 24 24 24 23 22 22 21 21 21 20 19 18 19 19 19 19 19 19 19 18 18 18 18 18 18 18 17 17 17
26 27 27 27 27 27 27 26 26 26 25 25 24 24 24 24 24 24 23 22 21 21 20 20 19 18 18 19 19 19 20 20 19 19 19 18 18 18 18 18 17 18 18 18
24 25 26 27 27 26 25 25 25 25 24 24 23 23 23 23 23 22 21 21 21 21 20 18 18 18 18 18 19 19 19 19 19 19 18 18 18 18 18 17 18 18 19 19
24 25 25 26 26 26 26 26 25 24 24 23 22 22 22 22 22 21 21 20 20 20 21 20 19 18 18 19 19 19 18 18 19 19 18 18 18 18 19 19 19 20 20 20
24 24 24 25 25 25 25 24 24 24 24 23 23 23 23 22 22 21 20 20 20 20 20 20 19 19 19 20 20 19 19 19 19 19 18 19 19 19 19 19 19 19 19 20
23 23 23 24 24 24 23 23 23 24 23 23 23 23 23 22 21 20 20 20 21 21 20 20 19 19 20 20 20 20 20 19 19 19 19 19 20 19 19 19 19 19 19 20
23 22 23 23 23 23 23 23 23 23 23 23 23 23 22 21 21 21 21 20 21 21 20 20 20 20 20 20 20 19 19 19 19 19 20 20 20 20 19 19 20 20 20 20
Wind_Direction
268 267 270 269 267 268 270 269 270 273 276 280 284 290 295 300 301 305 307 307 309 311 314 315 316 317 319 321 323 325 325 324 321 321 322 321 319 316 314 312 312 314 313 311
268 269 270 269 275 275 273 270 271 271 273 278 283 289 294 298 300 305 306 306 309 310 312 313 313 316 320 322 322 323 323 323 321 321 321 321 320 319 316 315 315 315 314 312
268 269 270 269 273 274 274 271 269 271 275 279 284 291 294 296 301 303 303 305 307 308 309 311 313 315 317 319 320 322 321 321 321 320 320 320 319 319 319 319 319 319 317 315
269 270 271 270 269 270 272 273 274 273 275 280 284 287 290 293 295 296 299 302 304 305 308 311 313 315 315 315 318 319 319 320 320 320 318 319 318 317 319 321 323 323 321 320
268 270 271 271 271 273 273 273 271 273 276 281 285 290 290 292 293 294 295 298 302 305 307 309 312 314 315 317 319 320 319 320 321 321 320 322 322 321 321 321 322 323 322 321
266 268 270 270 272 274 275 273 274 276 277 280 284 286 289 292 292 292 295 296 297 301 304 308 310 312 315 318 320 320 321 322 323 322 322 323 324 323 322 323 324 323 322 322
268 267 266 268 271 271 271 273 275 276 278 282 285 287 288 289 290 291 292 294 296 298 301 306 309 311 313 317 319 320 321 322 324 324 322 321 321 322 322 323 324 325 324 323
268 264 263 270 271 270 272 274 275 277 280 281 283 287 287 286 287 290 291 293 294 298 301 304 306 308 310 314 317 319 320 321 321 322 322 320 319 321 321 321 322 324 325 323
263 265 270 272 270 270 271 273 275 277 279 280 281 283 284 286 287 288 289 291 293 295 297 301 303 304 307 310 313 316 317 318 318 318 319 320 319 319 320 320 320 324 325 325
264 267 268 269 271 272 273 273 274 276 278 280 280 281 283 285 287 288 289 289 291 293 295 298 300 303 304 306 309 311 312 313 314 315 317 319 319 319 320 320 321 323 324 324
263 266 267 268 270 272 273 274 274 275 277 278 280 280 282 284 286 285 286 288 288 290 293 296 297 300 303 305 307 307 308 309 311 313 316 318 318 318 318 318 320 322 323 324
261 264 267 270 271 271 272 273 274 275 275 277 278 278 279 281 282 284 285 286 288 289 290 292 293 296 300 302 303 305 306 306 307 310 312 315 317 318 317 318 320 322 324 326
262 265 267 271 272 272 273 274 275 276 276 277 278 279 280 280 281 282 283 285 286 287 288 289 291 293 296 298 299 302 303 304 305 306 308 310 314 317 317 317 319 322 325 326
261 263 265 267 271 273 273 273 274 276 278 278 279 281 281 280 279 279 280 283 284 286 287 287 288 290 293 295 297 298 298 300 303 305 306 307 309 311 313 315 317 320 322 325
259 261 263 265 268 270 271 272 273 274 276 278 280 281 282 282 282 281 281 283 283 284 285 285 287 290 290 291 293 294 295 297 301 303 303 304 304 307 309 313 315 316 318 321
258 259 261 264 266 268 271 272 273 274 274 275 278 280 282 282 282 282 281 283 284 284 284 283 286 287 286 286 290 291 292 295 297 300 301 301 302 303 305 309 312 313 316 318
257 258 260 261 263 266 269 271 272 273 273 274 276 277 280 282 285 285 284 283 284 285 285 283 284 286 285 284 285 287 290 293 295 297 298 300 301 301 302 305 309 312 314 318
257 258 260 261 263 264 266 268 270 272 273 274 275 277 279 280 282 283 285 285 285 283 283 283 285 285 284 284 285 287 291 294 297 300 300 300 301 300 301 304 308 309 310 313
256 257 258 259 261 264 266 269 271 273 275 275 275 275 277 278 280 281 283 284 283 281 281 282 283 283 283 282 285 287 290 295 297 298 298 297 296 296 299 302 307 310 312 313
257 259 259 259 259 261 264 267 270 272 273 274 274 274 275 277 280 281 282 281 279 279 281 280 281 282 282 281 283 287 289 292 296 299 299 298 298 297 297 300 305 309 311 313
254 256 258 259 260 262 265 267 269 270 271 272 273 275 276 277 278 280 281 279 279 280 278 276 276 278 279 280 282 285 289 291 294 297 298 297 297 299 299 299 303 306 307 309
256 257 257 260 261 262 264 266 267 269 270 272 273 275 277 277 277 280 280 278 277 277 276 274 274 276 279 281 283 285 288 290 293 295 296 297 297 299 300 299 301 304 306 307
258 259 260 261 261 261 263 265 267 268 270 272 273 275 276 277 278 278 278 276 276 275 274 272 273 275 279 281 284 286 287 288 291 293 295 297 299 299 298 298 301 304 305 307
259 260 262 263 263 262 262 265 266 268 269 270 271 272 274 277 278 278 275 274 273 274 272 270 273 274 277 281 282 283 285 288 290 291 292 293 295 295 296 297 298 301 305 308
261 261 262 262 262 262 262 264 266 266 266 267 269 272 274 276 278 279 276 274 274 275 274 273 274 274 276 280 282 282 285 287 288 290 292 291 292 293 293 294 297 301 304 308
263 263 261 260 260 259 260 262 263 265 265 266 268 271 273 274 275 275 275 275 274 274 273 272 272 273 275 279 283 285 286 286 287 288 290 292 292 291 291 292 294 296 300 304
262 261 260 261 260 259 259 260 262 264 265 265 267 269 272 273 273 273 273 274 273 273 272 271 272 273 274 277 281 283 283 284 285 286 288 292 294 292 292 292 295 296 298 300